Flag for Germany Weather past 2 weeks in Mainz, Rhineland-Palatinate, Germany

Now
54 °F

Overcast.


Feels Like: 54 °F
Forecast: 52 / 61 °F
Wind: No wind

Location: Wiesbaden Airport

Current Time: Oct 25, 2014 at 6:04:57 PM

Latest Report: Oct 25, 2014 at 4:58 PM


Visibility: N/A

Pressure: 30.17 "Hg

Humidity: 88%

Dew point: 51 °F

Location of MainzLocation

Historic Weather in Mainz — Graph

°F

Mainz temperature yesterday

Maximum temperature yesterday: 54 °F (at 4:58 PM)
Minimum temperature yesterday: 39 °F (at 3:58 AM)
Average temperature yesterday: 46 °F

Past Weeks' High & Low Weather Summary

 TemperatureHumidityPressure
High72 °F (Oct 19, 3:58 PM)100% (Oct 10, 9:58 PM)30.28 "Hg (Oct 10, 9:58 PM)
Low39 °F (Oct 24, 3:58 AM)59% (Oct 15, 3:58 PM)29.58 "Hg (Oct 21, 5:58 PM)
Average55 °F90%29.98 "Hg
* Reported Oct 10 4:58 PM — Oct 25 4:58 PM, Mainz, Weather by CustomWeather, © 2014

Note: Actual official high and low records may vary slightly from our data, if they occured in-between our weather recording intervals... More about our weather records

Advertising

Mainz weather history for previous 24 hours

 ConditionsComfort  
Time TempWeatherWind HumidityBarometerVisibility
4:58 PM
Oct 25
54 °FOvercast.No wind88%30.17 "HgN/A
3:58 PM54 °FOvercast.1 mph94%30.16 "HgN/A
2:58 PM54 °FOvercast.No wind94%30.16 "HgN/A
1:58 PM53 °FLow clouds.2 mph92%30.15 "HgN/A
12:58 PM52 °FLow clouds.2 mph94%30.16 "HgN/A
11:58 AM52 °FLow clouds.1 mph94%30.15 "HgN/A
10:58 AM50 °FLow clouds.2 mph100%30.15 "HgN/A
9:58 AM48 °FMostly cloudy.No wind100%30.14 "HgN/A
8:58 AM48 °FMostly cloudy.No wind100%30.13 "HgN/A
7:58 AM48 °FFog.2 mph99%30.11 "Hg6 mi
6:58 AM48 °FPartly cloudy.2 mph100%30.11 "HgN/A
5:58 AM49 °FLight rain. Passing clouds.1 mph96%30.10 "HgN/A
4:58 AM48 °FOvercast.2 mph94%30.10 "HgN/A
3:58 AM50 °FOvercast.2 mph88%30.10 "HgN/A
2:58 AM50 °FOvercast.2 mph88%30.11 "HgN/A
1:58 AM50 °FMostly cloudy.2 mph88%30.12 "HgN/A
12:58 AM49 °FPassing clouds.5 mph91%30.12 "HgN/A
11:58 PM
Oct 24
49 °FPassing clouds.No wind93%30.13 "HgN/A
11:02 PM48 °FPassing clouds.3 mph94%30.12 "HgN/A
10:04 PM48 °FPartly cloudy.2 mph94%30.12 "HgN/A
9:58 PM48 °FPassing clouds.3 mph94%30.14 "HgN/A
8:58 PM47 °FPassing clouds.No wind91%30.14 "HgN/A
7:58 PM49 °FPassing clouds.2 mph94%30.14 "HgN/A
6:58 PM52 °FBroken clouds.1 mph79%30.13 "HgN/A
Weather by CustomWeather, © 2014

See weather overviewHow to use our weather pages